This is the latest recevied weather packets stored in our database for station/object S53BL-10. If no packets are shown the sender has not sent any weather packets the latest 10 day(s).
| Time | Temp. | Humidity | Pressure | Rain* | Wind** | Luminosity | Snow |
|---|---|---|---|---|---|---|---|
| 1777466127 | 10° C | 97% | 1019 hPa | - | - | - | - |
| 1777465227 | 10° C | 93% | 1019 hPa | - | - | - | - |
| 1777464326 | 10.56° C | 95% | 1019 hPa | - | - | - | - |
| 1777463425 | 10.56° C | 99% | 1018.7 hPa | - | - | - | - |
| 1777462524 | 10.56° C | 100% | 1018.7 hPa | - | - | - | - |
| 1777461623 | 10.56° C | 100% | 1018.7 hPa | - | - | - | - |
| 1777460723 | 11.11° C | 100% | 1018.8 hPa | - | - | - | - |
| 1777459822 | 10.56° C | 100% | 1018.7 hPa | - | - | - | - |
| 1777458921 | 11.11° C | 100% | 1018.7 hPa | - | - | - | - |
| 1777458020 | 10.56° C | 100% | 1018.7 hPa | - | - | - | - |
| 1777457119 | 10.56° C | 100% | 1018.6 hPa | - | - | - | - |
| 1777456219 | 11.11° C | 98% | 1018.7 hPa | - | - | - | - |
| 1777455318 | 11.67° C | 92% | 1018.6 hPa | - | - | - | - |
| 1777454417 | 11.11° C | 88% | 1018.4 hPa | - | - | - | - |
| 1777453516 | 11.11° C | 86% | 1018.3 hPa | - | - | - | - |
| 1777452615 | 11.67° C | 85% | 1018.3 hPa | - | - | - | - |
| 1777451714 | 11.67° C | 86% | 1018.1 hPa | - | - | - | - |
| 1777450813 | 11.67° C | 89% | 1018.1 hPa | - | - | - | - |
| 1777449913 | 12.22° C | 87% | 1018.2 hPa | - | - | - | - |
| 1777449012 | 11.67° C | 88% | 1017.9 hPa | - | - | - | - |
| 1777448111 | 12.22° C | 96% | 1017.7 hPa | - | - | - | - |
| 1777447210 | 12.22° C | 97% | 1017.6 hPa | - | - | - | - |
| 1777446310 | 12.22° C | 100% | 1017.5 hPa | - | - | - | - |
| 1777445409 | 12.22° C | 100% | 1017.5 hPa | - | - | - | - |
| 1777444508 | 12.22° C | 100% | 1017.3 hPa | - | - | - | - |
* Rain since midnight (hover to see other rain measurements)
** Current wind speed in m/s (hover to see current wind gust speed)